Location: Akdamlar
(36.8729°N, 30.5187°E)
Time: 19:20:12
(UTC+00:00)

Cosmos 1125 Rocket - Pass Details

Date: 18 September 2020
Orbit: 758 x 780 km, 74.0° (Epoch: 26 October)

Event Time Altitude Azimuth Distance (km) Brightness Sun altitude
Rises 17:13:46 0° 170° (S) 3,236 6.5 -15.3°
Reaches altitude 10° 17:16:22 10° 160° (SSE) 2,316 5.7 -15.8°
Maximum altitude 17:20:56 31° 100° (E) 1,350 4.2 -16.7°
Drops below altitude 10° 17:25:31 10° 40° (NE) 2,336 5.8 -17.6°
Sets 17:28:09 0° 30° (NNE) 3,269 6.6 -18.1°
